Weather History for Warrensburg, MO

Change the Weather History Date:

Monday, March 18, 2013

  Actual Average (KSZL) Record (KSZL)
Temperature  
Mean Temperature 42 °F -  
Max Temperature 51 °F 52 °F 76 °F (2012)
Min Temperature 33 °F 33 °F 23 °F (2001)
Degree Days  
Heating Degree Days 23    
Moisture  
Dew Point 29 °F    
Average Humidity 71    
Maximum Humidity 100    
Minimum Humidity 35    
Precipitation  
Precipitation 0.00 in - - ()
Sea Level Pressure  
Sea Level Pressure 29.86 in    
Wind  
Wind Speed 6 mph (WNW)    
Max Wind Speed 18 mph    
Max Gust Speed 24 mph    
Visibility 8 miles    
Events      
Averages and records for this station are not official NWS values.
T = Trace of Precipitation, MM = Missing Value Source: NWS Daily Summary

Daily Weather History Graph

Daily Weather History Graph

Search for Another Location

Airport:

Trip Planner

Search our weather history database for the weather conditions in past years. The results will help you decide how hot, cold, wet, or windy it might be!

Date:

Astronomy

Mar. 18, 2013 Rise Set
Actual Time 7:21 AM CDT 7:25 PM CDT
Civil Twilight 6:54 AM CDT 7:52 PM CDT
Nautical Twilight 6:23 AM CDT 8:23 PM CDT
Astronomical Twilight 5:52 AM CDT 8:54 PM CDT
Moon 11:24 AM CDT (3/18) 1:22 AM CDT (3/18)
Length of Visible Light 12h 57m
Length of Day
12h 04m
Waxing Crescent, 41% of the Moon is Illuminated
Mar 18
Waxing Crescent
Mar 19
First Quarter
Mar 27
Full
Apr 2
Last Quarter
Apr 10
New

Hourly Weather History & Observations

Time (CDT) Temp. Windchill Dew Point Humidity Pressure Visibility Wind Dir Wind Speed Gust Speed Precip Events Conditions
12:15 AM 33.8 °F 28.6 °F 32.0 °F 93% 29.75 in 5.0 mi ENE 5.8 mph - N/A   Overcast
12:35 AM 33.8 °F - 32.0 °F 93% 29.76 in 7.0 mi Calm Calm - N/A   Overcast
12:55 AM 33.8 °F - 32.0 °F 93% 29.76 in 7.0 mi Calm Calm - N/A   Overcast
1:15 AM 33.8 °F 29.6 °F 32.0 °F 93% 29.75 in 5.0 mi NE 4.6 mph - N/A   Overcast
1:55 AM 33.8 °F - 32.0 °F 93% 29.76 in 4.0 mi Calm Calm - N/A   Overcast
2:15 AM 33.8 °F 30.8 °F 32.0 °F 93% 29.76 in 5.0 mi North 3.5 mph - N/A   Overcast
2:35 AM 33.8 °F 30.8 °F 32.0 °F 93% 29.75 in 4.0 mi NNE 3.5 mph - N/A   Overcast
2:55 AM 33.8 °F 29.6 °F 32.0 °F 93% 29.75 in 3.0 mi North 4.6 mph - N/A   Overcast
3:15 AM 33.8 °F 30.8 °F 32.0 °F 93% 29.75 in 3.0 mi NNE 3.5 mph - N/A   Overcast
3:35 AM 33.8 °F - 32.0 °F 93% 29.75 in 3.0 mi Calm Calm - N/A   Overcast
3:55 AM 33.8 °F - 32.0 °F 93% 29.75 in 3.0 mi Calm Calm - N/A   Overcast
4:15 AM 33.8 °F 30.8 °F 32.0 °F 93% 29.75 in 3.0 mi NW 3.5 mph - N/A   Overcast
4:35 AM 33.8 °F - 32.0 °F 93% 29.75 in 3.0 mi Calm Calm - N/A   Overcast
4:55 AM 33.8 °F - 32.0 °F 93% 29.75 in 2.5 mi Calm Calm - N/A   Overcast
5:15 AM 33.8 °F - 32.0 °F 93% 29.75 in 3.0 mi Calm Calm - N/A   Overcast
5:35 AM 33.8 °F - 32.0 °F 93% 29.76 in 3.0 mi Calm Calm - N/A   Overcast
5:55 AM 33.8 °F - 32.0 °F 93% 29.75 in 3.0 mi Calm Calm - N/A   Overcast
6:15 AM 33.8 °F 30.8 °F 32.0 °F 93% 29.76 in 3.0 mi WNW 3.5 mph - N/A   Overcast
6:35 AM 33.8 °F 28.6 °F 32.0 °F 93% 29.78 in 3.0 mi West 5.8 mph - N/A   Overcast
6:55 AM 33.8 °F 27.7 °F 32.0 °F 93% 29.78 in 4.0 mi West 6.9 mph - N/A   Overcast
7:15 AM 33.8 °F 28.6 °F 32.0 °F 93% 29.80 in 5.0 mi West 5.8 mph - N/A   Overcast
7:35 AM 33.8 °F 28.6 °F 32.0 °F 93% 29.80 in 5.0 mi West 5.8 mph - N/A   Overcast
7:55 AM 33.8 °F 28.6 °F 33.8 °F 100% 29.81 in 7.0 mi West 5.8 mph - N/A   Overcast
8:15 AM 33.8 °F 27.7 °F 33.8 °F 100% 29.81 in 5.0 mi West 6.9 mph - N/A   Overcast
8:35 AM 35.6 °F 29.9 °F 33.8 °F 93% 29.81 in 10.0 mi West 6.9 mph - N/A   Overcast
8:55 AM 35.6 °F 30.7 °F 33.8 °F 93% 29.82 in 10.0 mi West 5.8 mph - N/A   Overcast
9:15 AM 35.6 °F 29.9 °F 33.8 °F 93% 29.83 in 10.0 mi West 6.9 mph - N/A   Overcast
9:35 AM 35.6 °F 28.6 °F 33.8 °F 93% 29.85 in 10.0 mi West 9.2 mph - N/A   Overcast
9:55 AM 35.6 °F 28.0 °F 33.8 °F 93% 29.86 in 10.0 mi West 10.4 mph - N/A   Overcast
10:15 AM 37.4 °F 31.4 °F 33.8 °F 87% 29.86 in 10.0 mi West 8.1 mph - N/A   Overcast
10:35 AM 37.4 °F 30.8 °F 33.8 °F 87% 29.86 in 10.0 mi West 9.2 mph - N/A   Overcast
10:55 AM 39.2 °F 32.5 °F 33.8 °F 81% 29.88 in 10.0 mi WNW 10.4 mph 19.6 mph N/A   Overcast
11:55 AM 44.6 °F 37.2 °F 35.6 °F 71% 29.88 in 10.0 mi NW 17.3 mph 23.0 mph N/A   Scattered Clouds
12:15 PM 44.6 °F 37.8 °F 33.8 °F 66% 29.88 in 10.0 mi NW 15.0 mph 24.2 mph N/A   Clear
1:15 PM 48.2 °F - 32.0 °F 54% 29.88 in 10.0 mi NW 12.7 mph - N/A   Unknown
1:35 PM 50.0 °F - 32.0 °F 50% 29.89 in 10.0 mi WNW 11.5 mph - N/A   Scattered Clouds
1:55 PM 50.0 °F - 32.0 °F 50% 29.88 in 10.0 mi WNW 15.0 mph 21.9 mph N/A   Clear
2:15 PM 50.0 °F - 30.2 °F 47% 29.88 in 10.0 mi West 16.1 mph 20.7 mph N/A   Clear
2:35 PM 51.8 °F - 30.2 °F 44% 29.88 in 10.0 mi West 15.0 mph 21.9 mph N/A   Unknown
3:15 PM 50.0 °F - 28.4 °F 43% 29.87 in 10.0 mi NW 16.1 mph 23.0 mph N/A   Clear
3:55 PM 50.0 °F - 28.4 °F 43% 29.88 in 10.0 mi WNW 11.5 mph 18.4 mph N/A   Clear
4:15 PM 50.0 °F - 26.6 °F 40% 29.89 in 10.0 mi WNW 13.8 mph 23.0 mph N/A   Clear
4:35 PM 51.8 °F - 26.6 °F 38% 29.89 in 10.0 mi West 15.0 mph 21.9 mph N/A   Clear
4:55 PM 51.8 °F - 26.6 °F 38% 29.90 in 10.0 mi West 17.3 mph 23.0 mph N/A   Clear
5:15 PM 51.8 °F - 26.6 °F 38% 29.89 in 10.0 mi West 13.8 mph 19.6 mph N/A   Clear
5:35 PM 51.8 °F - 26.6 °F 38% 29.90 in 10.0 mi West 18.4 mph 23.0 mph N/A   Clear
5:55 PM 50.0 °F - 23.0 °F 35% 29.90 in 10.0 mi West 12.7 mph 21.9 mph N/A   Clear
6:15 PM 50.0 °F - 24.8 °F 37% 29.90 in 10.0 mi West 15.0 mph 21.9 mph N/A   Clear
6:35 PM 50.0 °F - 24.8 °F 37% 29.91 in 10.0 mi West 10.4 mph 19.6 mph N/A   Clear
6:55 PM 50.0 °F - 24.8 °F 37% 29.92 in 10.0 mi WNW 9.2 mph - N/A   Clear
7:15 PM 48.2 °F - 23.0 °F 37% 29.93 in 10.0 mi West 17.3 mph 21.9 mph N/A   Clear
7:35 PM 46.4 °F 40.4 °F 21.2 °F 37% 29.95 in 10.0 mi WNW 13.8 mph 20.7 mph N/A   Clear
8:35 PM 42.8 °F 38.6 °F 26.6 °F 53% 29.98 in 10.0 mi NW 6.9 mph - N/A   Clear
8:55 PM 42.8 °F 36.2 °F 24.8 °F 49% 30.00 in 10.0 mi NNW 12.7 mph 21.9 mph N/A   Clear
9:15 PM 41.0 °F 36.4 °F 23.0 °F 49% 30.02 in 10.0 mi NNW 6.9 mph - N/A   Clear
9:35 PM 39.2 °F 34.2 °F 23.0 °F 52% 30.03 in 10.0 mi NW 6.9 mph - N/A   Clear
9:55 PM 37.4 °F 32.8 °F 23.0 °F 56% 30.04 in 10.0 mi NW 5.8 mph - N/A   Clear
10:15 PM 37.4 °F 34.9 °F 23.0 °F 56% 30.05 in 10.0 mi NNW 3.5 mph - N/A   Clear
10:35 PM 35.6 °F 30.7 °F 21.2 °F 56% 30.06 in 10.0 mi NNW 5.8 mph - N/A   Clear
10:55 PM 35.6 °F 31.7 °F 21.2 °F 56% 30.06 in 10.0 mi NNW 4.6 mph - N/A   Clear
11:15 PM 35.6 °F - 21.2 °F 56% 30.07 in 10.0 mi Calm Calm - N/A   Clear
11:35 PM 35.6 °F 32.8 °F 21.2 °F 56% 30.07 in 10.0 mi NNW 3.5 mph - N/A   Clear
11:55 PM 33.8 °F 29.6 °F 21.2 °F 60% 30.07 in 10.0 mi North 4.6 mph - N/A   Clear